Presure
137 147 138 153 152 130 136 155 142 156 159 149 135 172 185 201 185 125 176 190 144 177 170 174 108 173 185 165 172 186 192 179 180 204 204 196 189 185 180 176 155 157 156 168 178
142 148 147 148 145 139 147 147 151 110 143 160 167 152 210 190 139 115 145 191 182 130 172 175 162 168 164 174 185 184 192 184 194 208 200 190 179 174 161 158 160 157 184 158 170
161 149 142 142 145 139 142 143 153 159 147 134 167 182 204 188 139 113 183 114 183 121 124 166 170 168 165 159 179 175 194 208 95 208 183 168 165 158 160 164 175 178 189 194 196
161 137 167 152 135 130 156 149 147 160 164 156 183 211 186 152 109 115 120 183 150 175 169 172 170 138 175 160 184 174 193 205 208 177 166 164 161 161 164 155 159 153 152 186 184
139 138 153 149 146 134 148 152 164 177 179 187 181 197 177 185 116 144 125 183 178 176 164 175 172 173 172 199 188 127 178 201 177 168 162 158 158 156 156 162 160 159 182 174 168
137 148 148 149 144 143 162 179 173 168 168 214 206 187 168 156 173 150 184 180 180 175 151 136 169 161 168 180 148 190 185 183 175 168 164 165 161 164 156 154 165 164 180 177 168
148 177 164 179 151 145 179 178 169 161 192 203 182 167 180 180 173 187 187 179 179 178 131 175 167 168 163 91 177 182 170 169 166 164 152 161 157 157 154 153 158 144 176 178 173
180 170 172 177 181 171 161 126 154 175 221 185 178 162 179 174 158 186 181 180 152 173 182 180 175 165 162 173 91 175 168 161 162 157 165 162 162 154 154 149 150 167 180 163 173
134 182 176 183 182 186 165 155 200 216 200 179 167 180 186 181 147 186 181 178 180 152 181 177 176 95 159 171 168 82 169 161 165 155 151 158 160 151 158 161 158 177 168 177 169
179 183 169 181 146 178 183 184 207 195 183 174 166 173 156 174 140 176 181 179 182 180 186 120 168 142 169 167 167 173 170 166 158 152 163 162 157 156 149 155 159 152 166 169 162
181 177 173 176 165 183 180 210 190 188 179 169 160 168 164 174 155 182 114 121 183 186 185 166 157 155 175 141 170 168 163 162 170 157 155 159 159 159 157 166 160 148 160 170 156
166 176 176 169 177 179 175 187 187 178 182 170 174 151 163 182 174 133 139 183 181 183 186 145 154 138 169 161 159 155 163 168 160 156 156 155 152 149 159 168 167 152 162 150 168
178 174 163 184 175 204 188 184 180 176 177 165 182 157 169 173 167 160 105 184 182 181 174 155 154 169 153 139 152 157 171 172 161 159 149 155 145 171 159 151 161 151 164 160 158
181 134 178 186 207 192 184 187 184 165 160 175 161 158 172 165 161 183 102 147 183 95 150 161 161 171 162 137 167 159 151 171 158 167 135 146 142 166 157 150 155 151 162 160 151
164 184 174 209 193 189 198 174 168 166 165 169 150 170 162 164 97 153 104 92 124 133 162 103 173 148 156 140 147 129 163 170 166 157 163 149 149 163 159 149 142 162 137 164 160
179 173 164 200 191 184 205 175 163 171 167 157 152 166 160 154 126 140 113 157 149 161 160 158 165 153 146 140 155 146 149 150 164 165 157 160 143 141 154 157 152 142 139 169 151
180 162 186 190 187 191 203 180 158 164 173 152 162 154 159 157 131 130 84 165 147 154 156 151 162 150 154 151 147 147 160 154 170 154 155 150 147 158 150 151 150 156 147 154 156
160 173 191 187 176 197 191 176 158 136 166 153 151 155 158 167 153 151 147 159 153 146 158 163 161 147 153 155 138 150 150 162 153 160 158 156 156 151 168 144 151 154 146 144 147
176 172 184 183 174 194 179 188 148 169 161 157 143 141 88 90 151 138 150 146 143 150 148 147 150 150 157 147 153 156 149 163 165 138 158 153 150 164 160 137 160 148 143 160 166
172 166 162 185 182 186 175 176 165 161 168 167 152 155 159 155 155 142 156 124 151 148 151 150 148 150 152 146 154 149 161 158 163 143 156 154 144 155 153 143 163 145 145 138 162
151 181 167 180 177 174 193 168 145 149 161 163 159 160 151 157 154 147 141 139 135 137 143 142 145 147 150 150 143 139 162 151 152 153 164 161 153 156 142 146 157 141 139 158 167
151 183 173 179 171 173 174 193 182 127 152 164 161 161 150 165 150 154 154 154 143 135 142 134 143 151 153 136 150 142 147 147 154 155 162 148 148 130 152 160 157 153 143 159 167
171 177 181 173 163 174 175 170 181 171 174 157 157 161 158 151 152 150 157 160 152 157 156 146 155 144 134 145 143 153 152 153 158 155 157 152 168 143 158 156 158 142 133 118 163
179 186 179 163 173 181 171 173 169 198 176 173 164 168 164 166 151 158 153 152 152 153 156 155 150 150 151 153 152 154 148 144 158 152 158 154 165 144 160 161 142 131 136 146 144
178 174 178 186 177 178 180 174 176 167 171 190 174 166 159 162 163 160 163 170 171 178 173 150 175 160 159 162 159 157 155 157 157 161 162 152 127 151 171 159 161 133 148 138 133
182 165 180 161 186 175 183 178 172 175 171 164 167 184 183 161 158 155 176 176 170 162 171 166 170 167 158 158 163 155 149 157 150 158 159 156 148 138 175 159 141 134 142 129 161
181 184 182 170 184 165 154 185 181 165 170 170 166 168 166 163 167 169 162 155 155 164 172 167 161 171 165 166 167 166 164 166 164 161 156 134 107 156 155 156 141 133 148 151 156
Wind_Speed
29 33 35 34 30 27 30 39 36 42 49 35 27 56 71 32 29 22 29 18 26 16 24 21 27 24 27 30 30 29 25 25 21 14 9 10 14 17 21 25 36 37 40 41 41
32 37 34 33 32 32 35 36 43 19 42 47 52 43 34 30 22 19 20 15 15 21 22 21 29 26 27 29 30 29 25 24 20 13 8 11 18 23 32 36 38 42 41 46 45
48 36 35 35 32 32 34 36 44 54 38 25 47 62 27 28 24 22 20 26 13 26 25 27 26 28 29 31 30 29 26 21 40 10 15 24 27 33 35 36 39 42 40 41 39
67 37 64 34 35 29 50 43 39 51 59 41 58 31 30 22 22 24 27 18 22 19 23 23 27 37 29 32 27 28 24 19 12 19 24 25 28 32 33 41 42 49 51 42 42
34 31 36 37 37 35 43 50 54 67 59 63 48 27 24 27 25 26 28 17 19 20 28 23 26 28 30 28 28 33 28 20 21 24 26 30 33 37 40 42 48 52 44 48 51
41 33 36 39 45 40 72 62 58 49 50 37 26 27 23 21 23 25 19 18 19 21 29 32 26 28 29 29 31 25 24 22 23 25 27 29 34 36 43 48 48 52 44 43 51
39 36 74 47 45 42 54 55 46 42 54 28 26 21 23 21 23 19 17 19 18 20 33 23 24 26 29 37 27 26 26 27 29 29 36 32 39 41 46 50 52 62 44 43 47
45 55 67 55 59 45 42 26 39 53 26 24 24 21 23 22 24 20 20 19 26 21 20 21 22 26 28 29 41 26 28 30 30 34 33 34 36 45 48 53 57 53 44 52 48
34 43 35 39 43 43 43 38 41 26 23 24 22 24 22 21 24 19 20 21 20 28 21 22 20 34 29 29 30 45 28 31 29 35 41 42 38 48 46 49 53 48 47 50 52
41 32 35 36 41 40 41 43 27 24 26 23 22 22 21 20 25 20 20 21 21 22 18 39 23 36 27 29 29 30 31 30 33 38 35 38 43 45 51 51 49 60 52 53 57
31 33 35 34 33 38 36 25 24 26 25 23 24 22 23 20 23 20 30 31 21 20 19 25 26 29 23 42 27 30 33 34 33 37 38 39 41 45 48 46 49 62 56 57 66
40 33 31 34 36 36 29 27 26 26 24 25 25 25 24 18 20 28 28 20 19 19 19 33 27 39 24 29 30 33 32 30 34 40 38 42 47 51 47 46 49 59 55 67 63
33 31 36 37 36 28 28 30 28 25 25 28 20 24 22 20 21 27 32 19 18 19 19 28 29 25 31 40 34 32 32 32 34 37 49 45 55 42 46 56 55 62 59 59 67
34 34 35 33 28 30 32 32 29 26 26 26 27 26 19 25 27 18 34 29 17 37 25 27 29 26 28 42 29 31 39 33 38 36 44 53 58 47 49 54 55 62 65 61 66
37 34 36 27 29 31 35 32 30 28 30 27 30 22 26 26 26 29 31 34 31 39 26 40 27 35 33 40 39 52 34 35 35 38 36 49 53 47 46 52 63 61 74 63 68
33 33 37 29 30 31 36 31 30 32 32 32 32 25 28 32 30 27 32 26 33 28 29 30 29 34 38 43 39 42 39 39 38 37 40 40 53 61 53 53 54 65 71 69 70
33 39 30 29 32 32 35 36 33 33 33 34 32 33 31 33 31 33 34 27 36 34 33 36 31 38 37 39 44 45 41 41 42 44 43 46 47 44 52 55 61 61 64 69 71
40 34 30 31 34 34 35 40 37 26 36 35 37 34 35 30 38 38 39 32 37 42 34 33 35 41 41 40 48 43 46 45 45 43 43 45 46 48 53 54 56 65 67 68 70
39 36 30 32 36 37 38 40 37 39 39 39 38 37 37 38 35 40 41 43 45 42 42 42 42 44 41 46 46 45 46 47 48 52 46 51 52 55 55 59 55 58 66 76 77
43 41 43 34 37 37 41 44 42 42 40 42 41 41 39 35 42 44 40 44 44 45 43 42 45 47 48 48 50 49 50 48 50 48 48 46 51 52 54 57 57 57 66 72 79
47 45 44 39 40 42 42 43 42 43 43 46 45 45 45 45 45 46 49 48 48 49 48 48 49 51 53 51 52 53 56 53 53 48 46 46 50 52 53 62 59 59 64 74 81
49 47 45 41 46 47 45 43 47 42 47 46 48 48 49 47 48 48 49 49 50 52 51 53 53 51 53 55 54 55 57 60 58 63 54 44 49 54 53 58 61 59 65 77 83
52 50 46 48 49 50 48 49 48 49 50 51 50 49 52 53 52 52 51 49 51 51 51 51 49 54 63 59 56 55 56 60 63 62 66 54 57 50 55 55 60 58 64 58 81
56 57 52 56 53 51 52 52 54 49 53 54 55 53 53 53 56 54 56 56 54 53 53 54 53 53 55 58 58 57 59 58 62 63 70 62 64 57 58 61 52 63 67 72 71
61 59 58 59 57 54 53 57 57 57 56 56 57 57 56 57 55 55 55 56 57 54 54 55 50 55 55 57 58 57 60 62 62 62 68 68 55 60 66 63 61 61 68 66 66
65 65 63 63 61 59 54 61 62 59 61 62 61 54 56 60 58 57 53 52 53 58 54 53 52 52 56 57 59 58 56 64 61 62 66 68 65 44 67 58 46 59 64 61 87
69 70 67 66 63 64 59 62 64 64 64 64 63 62 62 59 56 55 56 58 59 56 55 57 55 55 59 54 60 61 59 63 64 64 66 63 57 63 67 48 44 56 68 77 81
Wind_Direction
243 253 253 275 273 253 265 288 284 296 302 294 297 318 316 305 307 311 311 301 312 314 314 320 313 333 338 331 337 348 346 344 337 351 339 300 300 304 307 311 304 306 306 310 310
241 248 253 261 259 260 280 282 291 283 305 299 303 312 305 303 305 312 305 297 304 312 315 319 317 329 332 335 341 348 345 342 343 354 341 327 329 324 315 313 312 310 326 308 315
266 251 246 252 258 257 277 276 286 293 283 287 305 310 292 299 305 306 295 306 302 316 313 314 323 328 330 332 343 347 347 353 334 3 347 333 327 319 316 317 328 331 332 332 329
269 242 273 264 252 258 286 277 281 289 295 290 304 291 297 293 299 301 308 297 313 304 311 316 322 330 331 334 343 341 348 353 359 345 336 329 322 318 319 316 320 315 319 336 331
235 257 266 259 258 257 275 278 284 290 294 298 300 283 286 288 298 299 306 301 306 310 311 318 326 329 332 345 347 343 339 353 343 339 331 328 322 320 322 330 329 328 337 333 330
234 246 257 263 263 261 282 280 285 283 293 287 272 285 289 285 288 296 296 299 304 303 311 319 320 326 330 346 345 352 349 346 339 336 334 331 326 332 327 329 337 333 335 330 329
246 249 264 266 264 268 272 280 279 287 291 276 277 275 280 281 289 290 293 296 299 294 320 312 317 326 332 335 345 351 341 337 336 337 329 330 326 328 329 329 334 327 337 337 333
250 259 263 264 268 263 265 271 272 285 266 267 272 274 281 283 289 292 293 294 303 302 305 315 328 327 330 339 340 347 343 337 338 332 333 333 331 328 330 331 328 339 341 330 338
246 251 250 255 261 265 266 262 283 265 250 263 267 272 275 279 287 288 291 294 299 308 312 316 326 325 330 337 342 340 343 337 337 331 327 328 333 330 332 333 333 349 338 348 344
243 241 250 253 261 266 270 273 257 249 255 258 263 266 275 279 287 286 288 294 300 302 307 315 321 320 335 336 338 347 344 340 332 327 336 332 332 330 331 333 335 329 341 347 337
234 239 246 253 257 265 268 239 246 240 252 256 262 264 274 279 284 286 292 295 299 303 302 311 318 324 337 322 345 347 342 339 342 333 332 329 331 331 334 338 337 331 339 349 334
241 240 246 248 257 257 255 243 240 242 246 253 257 270 274 275 277 287 294 292 297 301 301 312 317 316 333 332 333 334 340 342 334 330 329 329 330 334 336 342 343 331 342 335 351
237 241 245 255 253 243 234 240 236 239 240 257 255 267 269 274 277 283 298 291 294 297 308 311 314 324 320 317 327 332 344 342 337 334 325 333 329 341 338 333 342 333 348 346 347
239 243 247 262 247 237 233 231 233 240 248 249 257 265 263 267 274 278 301 294 292 312 310 309 315 321 322 314 335 332 330 342 334 345 328 326 325 339 338 335 339 339 347 346 339
240 249 249 255 244 235 224 231 233 237 243 244 261 257 261 267 301 281 304 307 301 300 304 322 316 310 319 314 321 322 344 345 339 332 338 326 332 338 339 336 335 344 334 348 349
240 243 248 250 242 240 222 230 235 235 237 250 259 256 261 269 287 288 298 291 292 296 301 305 313 311 311 313 322 322 327 330 335 338 338 342 331 331 340 339 337 331 334 346 340
244 242 264 248 239 237 230 228 239 239 236 253 252 263 262 268 288 288 322 286 291 295 299 303 310 309 313 314 316 319 333 330 343 336 337 333 329 337 330 332 335 343 332 341 343
239 245 260 247 240 233 235 229 239 256 238 251 258 260 263 263 271 276 283 286 289 293 300 305 307 306 311 315 314 320 324 334 332 337 334 333 333 332 342 333 337 342 332 330 334
237 238 249 244 239 237 234 227 246 235 241 247 260 266 298 297 269 280 279 283 288 292 295 299 303 304 310 310 315 321 321 330 330 326 336 336 336 343 342 328 337 328 327 343 344
235 238 241 243 238 239 235 232 239 243 242 245 254 256 257 263 265 277 277 292 285 291 295 298 301 304 307 309 314 319 324 325 326 329 335 334 331 338 336 328 337 324 327 328 344
253 249 240 242 238 239 240 238 251 250 246 248 253 255 265 267 269 272 277 281 285 288 291 296 299 302 304 309 311 314 321 320 321 324 332 335 332 335 325 328 335 318 325 340 344
258 246 237 241 241 241 242 243 240 264 251 252 253 255 261 264 267 271 273 275 281 286 289 293 297 299 302 306 310 312 315 316 321 321 327 326 328 322 332 332 334 334 327 341 342
239 245 245 240 250 243 242 244 241 240 244 252 254 256 259 264 268 271 271 272 279 282 285 289 292 295 301 302 306 311 313 314 317 319 320 324 330 327 332 331 334 324 327 335 343
250 250 245 245 246 245 245 244 247 245 248 248 251 254 257 259 266 267 273 277 278 281 283 287 291 294 296 299 304 308 309 312 314 316 317 321 327 327 331 332 323 322 323 335 339
243 249 249 253 253 247 249 248 245 249 250 249 253 254 256 259 262 265 268 271 275 280 279 286 282 287 290 292 297 302 306 309 312 316 316 317 318 327 328 330 334 318 332 334 341
245 252 245 250 253 247 250 249 251 249 249 254 254 254 256 259 264 268 267 271 273 277 281 283 285 286 291 296 296 301 306 306 309 314 314 313 321 322 327 327 311 313 329 336 339
253 249 246 251 247 257 263 252 251 253 253 255 258 259 262 264 265 266 270 273 276 277 275 281 287 288 290 295 295 299 304 305 308 311 311 316 326 322 324 324 309 318 334 337 337